EW1836 Weather Reports


time (UTC)temp
C
wind
direction
speed
KPH
gust
KPH
rain 1hr
cm
rain 24hr
cm
rain mn
cm
humidity
%
barometer
mb
20260504081528 5 48 0.0 0.0 0.00 0.00 0.00 88 1019.5
20260504050002 6 48 0.0 0.0 0.00 0.00 0.00 86 1020.4
20260504044600 7 48 0.0 0.0 0.00 0.00 0.00 85 1020.4
20260504043114 7 48 0.0 0.0 0.00 0.00 0.00 85 1020.6
20260504041554 7 48 0.0 0.0 0.00 0.00 0.00 85 1020.7
20260504040052 7 48 0.0 0.0 0.00 0.00 0.00 84 1020.8
20260504034554 8 48 0.0 0.0 0.00 0.00 0.00 84 1020.8
20260504033102 8 48 0.0 0.0 0.00 0.00 0.00 83 1020.7
20260504031556 8 48 0.0 0.0 0.00 0.00 0.00 82 1020.7
20260504024550 9 48 0.0 0.0 0.00 0.00 0.00 80 1020.7
20260504023049 10 48 0.0 0.0 0.00 0.00 0.00 79 1020.6
20260504021550 10 48 0.0 0.0 0.00 0.00 0.00 78 1020.2
20260504020053 10 48 0.0 0.0 0.00 0.00 0.00 77 1020.1
20260504014547 11 48 0.0 0.0 0.00 0.00 0.00 75 1019.9
20260504013052 12 48 0.0 0.0 0.00 0.00 0.00 72 1019.8
20260504011546 13 48 0.0 0.0 0.00 0.00 0.00 68 1019.6
20260504010055 13 48 0.0 0.0 0.00 0.00 0.00 65 1019.5
20260504004547 15 48 0.0 0.0 0.00 0.00 0.00 62 1019.3
20260504003045 15 48 0.0 0.0 0.00 0.00 0.00 60 1019.1
20260504001548 16 48 0.0 0.0 0.00 0.00 0.00 54 1019.1
20260504000042 18 48 0.0 0.0 0.00 0.00 0.00 51 1019.1
20260503234543 18 48 0.0 0.0 0.00 0.00 0.00 48 1019.1
20260503233042 20 48 0.0 1.6 0.00 0.00 0.00 42 1019.2
20260503231542 20 52 0.0 1.6 0.00 0.00 0.00 39 1019.2
20260503224540 20 306 0.0 12.9 0.00 0.00 0.00 40 1019.2
20260503223049 21 15 0.0 4.8 0.00 0.00 0.00 38 1019.2
20260503221547 21 350 0.0 4.8 0.00 0.00 0.00 34 1019.3
20260503220039 21 266 0.0 4.8 0.00 0.00 0.00 35 1019.3
20260503214551 21 47 1.6 6.4 0.00 0.00 0.00 36 1019.4
20260503213037 21 52 0.0 8.0 0.00 0.00 0.00 35 1019.4
20260503211538 21 171 1.6 4.8 0.00 0.00 0.00 38 1019.5
20260503210035 21 339 3.2 11.3 0.00 0.00 0.00 33 1019.7
20260503204539 21 198 1.6 6.4 0.00 0.00 0.00 35 1019.7
20260503203033 21 28 1.6 11.3 0.00 0.00 0.00 39 1019.9
20260503201534 21 5 1.6 8.0 0.00 0.00 0.00 38 1020.2
20260503200031 21 5 1.6 6.4 0.00 0.00 0.00 44 1020.4
20260503194527 20 9 0.0 9.7 0.00 0.00 0.00 44 1020.7
20260503193027 20 80 0.0 9.7 0.00 0.00 0.00 43 1020.8
20260503191526 20 28 0.0 4.8 0.00 0.00 0.00 40 1021.0
20260503190036 20 9 0.0 11.3 0.00 0.00 0.00 41 1021.3
20260503184524 20 83 0.0 4.8 0.00 0.00 0.00 39 1021.4
20260503183020 20 164 0.0 4.8 0.00 0.00 0.00 48 1021.6
20260503181534 19 277 0.0 11.3 0.00 0.00 0.00 46 1021.9
20260503180024 18 302 0.0 9.7 0.00 0.00 0.00 46 1022.0
20260503174512 18 98 0.0 4.8 0.00 0.00 0.00 52 1022.0
20260503173011 18 27 3.2 11.3 0.00 0.00 0.00 47 1022.2
20260503171520 17 317 0.0 8.0 0.00 0.00 0.00 49 1022.4